Terminal Aerodrome Forecast
Issued by NWS

Home | Current Version | Previous Version | Text Only | Print | Product List | Glossary Off
Versions: 1 2 3 4 5 6 7 8 9 10 11 12 13 14 15 16 17 18 19 20 21 22 23 24 25 26 27

095
FTUS43 KLOT 222059 AAC
TAFMDW
TAF AMD
KMDW 222059Z 2221/2318 34014G24KT 3SM -DZ BR VCSH BKN009 OVC022
      TEMPO 2221/2223 1 1/2SM -DZRA BR OVC006
     FM222300 36012G19KT 4SM -RA BR OVC007
     FM230100 36009KT 5SM -RA BR OVC009
     FM230600 33007KT 6SM BR SCT015 BKN080
     FM231400 28006KT P6SM BKN150=

USA.gov is the U.S. government's official web portal to all federal, state and local government web resources and services.